Back to catalog

STARLINK-3984

AliveCommunicationsVLEO
NORAD 52621·PAYLOAD·🇺🇸 United States

Launched May 14, 2022 from Cape Canaveral Space Force Station

Loading…

Next Passes (next 24 hours)

TLE

FreshSource: CelesTrak SupGP

Epoch: Sep 14, 2026, 14:25 UTC

1 52621C 22052Z   26257.60118056  .00011873  00000+0  33971-3 0  2578
2 52621  53.1572 130.3130 0001223  96.7673 157.1731 15.35392218    13

Track STARLINK-3984 in real time with AllMySat

Download on the App Store